Location: Pedholt
(56.0260°N, 10.2097°E)
Time: 20:10:09
(UTC+00:00)

Tiros 1 - Pass Details

Date: 08 August 2021
Orbit: 630 x 663 km, 48.4° (Epoch: 19 September)

Event Time Altitude Azimuth Distance (km) Brightness Sun altitude
Rises 19:22:46 0° 268° (W) 2,986 11.6 -2.1°
Reaches altitude 10° 19:25:33 10° 253° (WSW) 2,067 10.4 -2.5°
Maximum altitude 19:29:09 22° 204° (SSW) 1,441 8.9 -2.9°
Drops below altitude 10° 19:32:43 10° 155° (SSE) 2,046 9.2 -3.3°
Enters shadow 19:34:38 - 143° (SE) 2,658 9.7 -3.5°
Sets 19:35:28 0° 140° (SE) 2,947 - -3.6°
